Wind_Speed
18 19 19 20 20 21 22 23 23 24 24 25 24 24 24 23 23 23 23 21 20 21 23 23 23 23 23 22 21 20 19 18 18 18 17 17 17 18 18 18 18 18 18 17 17 16 15 14 14 13 13 13 14 14 14 14 15 16 17 18 20 21 22 23 23 22 22 22 22 22 23 22 23 24 23 22 22 22 22 22 21 22 22 23 23
17 18 20 21 21 21 21 22 23 23 24 26 25 25 24 23 23 24 24 23 22 22 23 24 24 24 24 23 23 22 20 19 20 20 19 18 18 19 19 19 20 20 20 20 20 19 18 16 15 15 14 15 16 16 17 18 19 20 21 22 24 26 27 27 28 27 26 26 26 26 26 26 26 27 26 25 24 24 23 23 22 22 23 23 23
16 18 20 21 21 22 22 22 22 23 24 26 26 24 23 22 23 24 23 24 23 23 23 24 25 25 25 24 23 23 21 21 21 22 21 20 20 20 20 20 22 23 22 20 19 18 18 17 15 15 15 16 17 18 20 21 22 23 24 26 27 29 30 31 31 31 30 29 29 29 29 28 28 28 29 29 28 27 26 25 24 24 24 23 23
17 17 19 20 21 22 23 22 22 22 24 26 26 25 24 23 23 23 23 23 23 23 24 24 25 25 25 24 23 22 22 21 21 21 21 21 22 22 22 21 22 24 21 19 17 17 18 18 19 19 19 18 19 21 22 23 24 26 27 28 29 30 31 32 32 33 33 32 31 31 31 30 29 29 30 30 30 30 29 28 27 26 25 24 23
17 17 17 18 20 21 22 22 22 22 23 24 24 24 24 24 23 23 22 22 23 23 24 24 24 24 23 23 22 21 21 21 22 22 22 22 23 23 23 23 24 25 23 22 21 21 21 22 23 23 23 23 23 24 24 25 26 28 29 30 30 30 30 31 32 32 33 32 31 31 32 31 30 30 31 31 30 30 30 30 30 29 28 27 25
17 17 17 18 19 20 21 21 21 21 22 23 22 22 22 22 22 22 21 21 21 21 22 22 23 22 22 22 22 22 22 22 22 23 24 24 24 24 25 25 26 26 26 25 25 24 24 23 24 24 25 26 27 27 27 28 28 29 30 30 30 29 29 29 30 30 31 31 31 31 31 32 31 30 30 30 30 29 29 29 29 29 29 28 27
17 17 18 18 19 20 20 21 21 20 21 22 22 21 21 21 20 20 20 20 20 19 20 21 22 23 22 23 24 24 25 25 23 23 24 25 25 25 26 26 26 27 27 28 27 26 25 25 25 27 27 29 29 29 29 29 29 29 29 28 28 29 29 29 29 30 30 31 32 32 31 30 30 30 29 29 29 28 29 29 28 28 29 29 28
14 16 18 19 19 19 20 20 21 21 22 23 22 21 20 20 20 19 19 19 19 19 19 21 23 22 22 24 26 26 27 28 27 25 24 24 24 26 27 28 28 28 28 29 29 28 27 27 28 29 30 30 31 32 32 31 30 28 27 28 28 29 29 29 29 30 31 32 32 30 28 27 27 28 27 27 27 26 27 28 27 26 27 28 28
9 11 12 13 14 15 17 19 20 21 23 24 24 22 21 21 21 20 20 20 19 19 20 22 22 21 20 22 24 26 26 28 28 26 25 24 25 26 28 29 29 29 29 30 30 29 28 28 29 29 29 29 29 30 31 30 29 28 28 28 29 29 29 30 30 30 31 31 30 29 27 26 26 26 26 26 26 25 25 26 26 26 26 26 26
7 8 8 7 7 9 10 13 17 20 22 24 26 26 24 23 22 21 20 20 20 19 20 22 22 21 21 20 20 22 24 25 25 24 23 24 24 26 28 29 30 30 30 29 29 28 27 28 28 27 27 26 26 26 26 27 28 28 27 27 28 29 29 30 30 31 31 30 29 28 27 27 26 27 26 26 26 26 26 26 26 26 27 27 26
7 7 7 8 9 9 10 11 13 16 19 23 25 27 27 26 25 23 22 20 20 19 20 20 21 21 21 20 18 18 20 23 24 24 23 24 24 25 26 28 28 29 28 27 27 27 27 27 26 25 24 24 24 24 25 26 26 25 26 27 27 27 29 30 31 31 29 28 28 28 28 27 27 27 27 27 26 26 26 27 27 27 27 28 28
10 9 9 10 11 12 13 14 15 16 17 20 23 25 27 27 27 26 23 21 20 20 20 19 19 19 20 19 18 18 20 22 25 25 25 25 25 25 27 28 27 27 26 25 24 25 25 25 24 24 23 23 23 24 25 24 24 24 25 26 26 27 28 29 29 28 27 27 27 28 29 28 27 27 27 26 26 26 26 27 27 27 27 28 29
13 12 12 13 14 15 16 17 17 18 19 20 22 24 26 27 28 27 24 22 21 21 21 19 18 19 19 19 19 19 20 23 25 26 26 26 26 26 27 27 27 25 24 23 22 22 23 23 24 24 24 24 25 25 25 24 24 25 25 25 25 26 27 26 26 25 25 26 27 28 29 29 28 28 28 27 26 26 27 27 27 27 26 27 27
17 16 16 16 17 17 18 19 19 20 21 21 23 25 25 26 27 27 26 24 23 22 22 21 20 20 21 21 21 21 21 23 25 26 26 26 26 25 25 26 26 25 23 22 22 22 23 23 24 24 24 24 25 25 25 25 26 25 24 24 24 25 25 24 24 24 25 26 27 28 29 30 30 30 30 29 29 28 28 27 27 26 26 25 25
22 21 20 19 20 20 20 21 22 22 23 23 24 25 26 26 27 28 28 26 24 23 23 23 22 21 22 22 22 21 22 23 24 25 26 26 25 24 23 25 25 24 23 22 22 23 24 24 24 24 24 24 26 26 25 26 27 25 23 23 24 23 23 23 23 24 25 26 27 28 29 30 31 32 32 32 31 30 29 28 27 26 25 25 24
28 26 24 22 21 22 23 24 25 24 24 25 25 25 26 27 28 29 29 27 26 25 24 23 22 21 22 22 22 21 22 23 24 24 24 24 24 23 23 24 24 24 23 23 23 24 24 24 24 25 25 25 26 26 27 27 26 24 23 23 23 22 22 23 24 25 27 28 29 30 30 31 31 31 32 33 32 32 30 28 27 26 25 24 22
32 29 27 24 23 24 25 26 27 26 26 27 27 26 25 27 28 29 30 28 27 25 24 23 22 21 21 22 21 21 21 22 23 23 23 23 23 23 23 24 25 24 24 24 24 25 24 24 24 24 25 25 25 26 27 27 25 23 23 23 23 23 23 24 26 27 28 30 31 31 32 32 32 31 31 32 32 31 30 28 27 26 25 23 22
34 31 28 26 25 25 26 27 28 28 28 28 27 26 26 27 29 30 30 28 27 26 25 24 23 21 21 21 20 20 19 20 21 21 22 23 23 24 24 24 25 25 25 25 25 25 24 24 24 24 24 24 24 25 27 26 24 23 23 23 23 23 24 26 28 29 29 30 32 33 33 33 33 33 33 32 31 30 29 27 26 25 24 23 22
34 32 30 28 27 27 27 28 28 28 28 28 27 26 26 27 29 30 30 29 28 28 27 25 22 20 20 19 19 18 17 17 19 20 21 22 23 24 24 24 24 24 24 24 24 24 23 23 23 23 23 24 24 25 27 27 25 23 23 23 23 23 25 28 29 29 30 32 33 33 33 32 33 34 34 33 30 29 28 26 25 24 23 22 22
34 33 32 29 27 28 28 28 27 27 28 27 27 27 27 29 30 31 31 30 30 29 28 25 22 19 18 18 18 17 16 16 17 18 20 22 23 24 24 24 24 23 24 24 24 24 23 23 22 22 22 24 25 25 26 26 25 24 25 24 23 23 26 28 29 30 31 32 32 31 31 31 33 34 33 32 30 28 26 25 24 22 21 21 22
38 37 35 31 29 28 27 26 26 27 28 28 27 28 29 30 31 32 32 32 31 30 28 25 21 19 18 18 18 17 17 17 18 19 21 22 24 25 25 25 24 25 25 26 25 25 24 23 22 22 23 24 25 24 25 26 27 27 26 25 24 25 27 29 30 31 32 32 31 30 30 31 32 33 32 31 29 27 25 24 22 20 19 20 20
43 42 40 37 34 31 28 26 27 28 29 29 29 30 30 31 32 33 34 33 31 30 28 25 22 20 20 19 19 19 19 20 20 21 22 24 26 27 27 27 27 28 28 28 28 27 26 25 24 24 24 25 25 25 25 27 29 29 27 25 26 27 28 29 30 31 32 31 31 30 30 31 31 32 32 30 27 25 23 21 20 19 18 19 20
44 42 40 38 39 38 33 28 28 30 31 31 31 31 31 32 32 33 34 33 31 29 27 25 22 21 20 20 20 20 21 21 21 21 22 23 25 26 27 27 29 30 30 29 29 28 28 28 28 27 27 27 26 26 27 29 30 29 27 26 27 28 29 30 31 31 31 31 30 30 30 31 32 32 31 28 25 23 20 18 17 17 18 18 19
43 42 43 43 42 38 32 28 28 31 32 33 32 32 31 32 32 32 33 33 31 29 27 25 23 22 21 21 22 22 22 22 22 21 21 22 23 24 25 26 28 29 29 29 28 27 27 28 28 29 30 29 27 27 29 30 30 30 28 28 28 29 30 31 31 32 31 31 31 31 31 32 32 32 29 26 22 20 17 16 17 17 18 18 18
40 38 38 38 35 31 27 26 27 29 31 32 32 31 31 31 32 32 32 32 32 30 27 26 24 23 22 22 22 22 23 23 23 22 22 22 23 24 26 27 28 29 30 29 29 28 27 27 28 29 31 31 30 30 31 31 31 31 30 29 29 30 30 31 31 32 31 31 32 33 32 32 32 30 27 23 20 17 17 17 18 18 18 19 19
31 28 26 26 26 25 25 26 27 28 30 30 30 30 30 31 32 32 32 33 32 30 28 27 26 25 24 22 21 22 23 24 24 24 24 24 24 24 25 26 27 29 29 29 30 31 30 28 28 30 32 33 34 33 32 30 31 31 30 30 30 30 30 31 31 31 31 31 32 33 32 31 30 28 24 20 18 17 18 19 20 19 20 20 21
27 25 24 24 24 24 24 25 26 27 28 28 29 29 30 31 32 33 33 34 33 31 29 28 27 26 24 23 23 24 25 25 25 26 27 27 26 26 26 26 27 27 28 28 30 31 31 31 30 31 31 32 34 34 33 31 30 31 31 30 30 30 30 31 31 31 30 31 33 33 32 30 27 24 21 19 18 19 19 20 20 21 21 22 22
24 24 23 24 23 23 24 25 26 26 26 27 28 29 30 31 32 32 33 33 32 31 29 28 27 26 25 25 25 26 26 27 27 28 29 29 29 29 29 29 29 29 29 30 30 31 31 31 32 32 31 32 33 34 34 32 31 31 31 30 30 30 30 30 30 30 30 31 32 32 31 28 24 21 19 18 19 20 20 20 21 22 22 21 20
20 21 22 23 23 24 24 25 26 27 27 28 29 30 31 31 31 32 33 33 31 30 29 28 27 26 26 26 26 27 27 28 29 30 31 30 31 31 31 32 33 33 33 33 32 32 31 30 30 31 31 32 33 34 34 33 32 31 31 31 31 31 30 30 29 29 30 31 32 31 30 25 21 19 18 18 19 20 20 21 22 21 20 19 18
20 21 22 23 23 24 24 25 26 26 27 29 30 30 29 29 31 32 32 30 29 28 28 27 27 28 27 27 28 29 29 29 30 31 32 32 33 33 33 34 36 36 35 35 34 33 31 29 28 29 31 31 32 33 33 33 33 32 32 32 32 31 30 30 29 29 30 31 31 31 28 23 18 17 18 18 19 20 20 21 20 20 19 17 17
19 21 22 23 23 24 24 25 26 25 25 27 29 28 26 27 29 30 29 27 27 28 28 28 28 29 29 29 30 30 30 31 32 32 33 34 34 34 35 36 37 36 35 35 33 31 30 29 28 28 30 31 32 33 33 33 33 32 32 32 31 30 30 29 29 29 30 30 31 30 26 21 18 17 18 19 20 20 20 19 19 18 18 17 16
19 21 21 22 23 23 24 24 25 26 26 26 27 27 26 26 27 27 27 27 28 28 28 29 29 30 31 31 31 31 31 33 34 34 34 34 34 35 36 36 36 34 33 32 30 28 27 28 28 28 29 31 31 31 32 32 32 31 31 31 30 30 30 29 29 29 29 30 30 29 25 20 18 18 18 19 20 19 19 18 18 18 17 16 17
19 21 22 23 23 23 22 23 24 25 26 27 28 28 28 28 28 28 28 29 29 30 30 31 31 32 33 33 33 33 33 34 35 36 36 35 35 35 35 35 34 33 32 31 28 26 25 25 26 27 29 31 30 29 29 30 30 30 30 30 30 30 30 30 30 29 28 29 29 28 25 21 19 18 19 19 19 19 19 19 18 18 17 17 18
18 19 21 22 22 22 22 22 23 24 25 26 27 28 28 29 29 30 30 31 31 31 32 33 33 34 34 34 34 34 34 35 36 37 37 36 36 36 35 35 34 33 32 31 29 26 25 24 24 25 28 29 28 27 26 26 27 28 29 30 30 30 30 31 30 28 27 28 29 28 25 22 20 19 19 20 20 19 19 19 19 18 17 18 19
18 18 20 21 22 22 23 23 23 24 24 25 26 27 27 28 28 29 29 30 30 31 31 32 33 33 33 33 34 34 34 35 36 36 37 36 36 36 35 35 35 34 33 32 30 27 25 23 24 25 26 27 27 27 26 26 26 27 28 29 30 31 31 31 30 28 26 26 27 28 26 24 21 20 20 21 20 20 19 20 19 18 18 19 20
17 17 17 18 19 20 22 23 23 24 24 24 24 25 25 26 26 26 27 28 28 28 29 29 31 32 32 32 33 34 35 35 35 35 35 36 36 35 35 35 35 34 34 33 31 28 26 25 25 26 27 27 28 28 28 27 27 27 29 30 31 31 31 30 30 28 26 25 26 27 27 24 22 22 22 21 21 21 20 20 20 19 20 20 21
16 16 17 17 16 16 17 19 20 21 22 23 23 23 23 24 24 25 25 26 26 27 27 28 29 30 31 31 33 34 34 34 34 34 34 34 34 34 34 35 35 36 35 34 32 30 29 28 28 28 28 29 30 30 30 29 28 29 31 32 31 31 30 29 29 29 27 26 25 26 26 25 24 23 23 22 22 22 21 21 21 20 20 21 21
16 16 16 16 15 15 15 15 16 18 19 20 21 22 22 23 23 24 24 25 25 26 27 27 28 28 29 30 32 33 34 34 34 34 34 34 34 34 35 35 36 36 36 36 35 34 32 31 31 31 30 32 34 34 33 32 31 31 32 32 31 30 30 29 29 29 29 27 25 25 25 26 25 25 24 23 23 23 22 22 22 21 21 21 22
14 14 15 15 15 15 15 16 16 17 18 19 20 21 22 22 23 23 23 24 24 25 25 26 26 27 28 29 31 32 33 33 33 33 33 34 34 34 35 35 36 36 36 36 36 36 34 33 33 33 33 35 37 37 35 33 32 32 32 32 31 31 30 30 29 30 30 29 27 25 25 26 26 26 25 25 24 24 23 23 23 22 21 21 22
12 13 14 14 15 15 16 17 17 18 18 19 19 20 21 21 22 23 23 23 23 23 24 24 24 24 25 26 28 29 29 28 28 28 29 30 31 31 32 33 34 34 35 35 36 36 35 35 35 35 35 36 37 36 34 33 33 32 32 32 32 31 31 30 30 31 31 30 28 26 25 26 27 28 27 26 25 25 25 24 24 23 22 22 22
13 14 14 14 15 16 17 17 18 18 18 18 18 18 19 19 20 21 21 22 22 22 22 22 22 22 23 24 24 26 26 25 24 25 25 26 28 29 30 31 32 32 33 33 33 35 36 36 36 37 37 37 38 38 37 36 36 35 34 33 33 33 32 32 32 32 32 32 30 28 26 26 27 29 28 27 27 27 26 26 25 24 23 23 24
12 13 13 14 15 16 16 17 17 17 17 17 17 17 18 18 19 19 19 20 20 20 21 21 21 21 22 23 24 25 25 25 25 25 25 25 26 27 28 29 30 31 32 32 32 33 35 36 37 38 39 39 39 40 40 39 38 37 37 36 36 35 34 33 33 33 33 33 32 30 28 27 28 29 30 29 29 29 28 27 25 25 24 25 25
12 12 13 13 14 15 16 16 16 16 17 17 17 17 18 18 19 19 19 19 20 20 20 21 21 21 21 22 23 24 25 25 25 25 25 25 25 26 26 27 29 29 31 32 32 33 34 35 36 38 40 41 40 41 42 41 39 39 39 39 38 37 36 35 34 34 34 34 32 31 29 28 28 29 30 31 31 30 29 27 26 25 25 26 26
13 13 13 14 14 15 16 16 17 17 17 17 18 18 18 18 19 19 20 20 20 21 21 22 22 22 22 23 23 24 24 25 25 25 25 25 25 26 26 27 28 29 29 30 31 32 34 35 36 37 40 42 41 41 42 42 41 40 40 40 40 39 38 37 36 35 34 33 31 31 30 29 28 29 30 31 32 31 30 28 27 26 26 27 27
14 14 15 15 15 16 17 17 18 18 19 19 19 19 20 20 21 21 22 22 22 23 23 23 23 23 23 23 24 24 25 25 25 25 25 25 25 26 26 27 27 28 28 29 30 31 33 35 36 36 38 41 43 43 42 42 42 41 40 40 40 39 38 37 37 35 33 32 31 31 30 29 29 29 30 31 32 32 31 30 28 27 27 28 28
15 16 16 17 17 18 19 19 19 20 20 20 21 21 22 23 23 24 24 24 24 24 24 24 24 24 24 24 24 25 25 26 26 25 26 26 26 26 27 27 27 27 27 27 29 30 32 33 36 36 36 39 44 47 45 43 42 42 41 40 39 38 37 37 36 34 33 32 31 30 30 29 28 29 30 31 32 33 32 31 30 29 28 28 29
17 17 18 19 19 20 20 20 20 21 21 21 22 22 23 24 25 25 26 26 26 26 26 25 25 26 25 25 25 26 26 26 27 26 26 27 27 27 27 28 28 28 27 27 27 29 30 32 35 36 36 37 41 47 49 46 43 41 41 39 38 37 36 35 34 32 32 32 31 29 28 27 27 28 30 31 32 33 33 32 31 30 29 29 29
19 19 19 20 20 20 20 20 20 21 21 22 22 23 24 25 25 26 26 26 26 26 26 26 27 27 26 26 26 26 26 26 27 27 27 27 27 27 28 28 29 29 29 28 27 27 29 31 33 36 38 38 38 42 48 49 45 42 41 39 36 35 34 32 31 31 31 31 29 27 25 25 25 27 29 31 32 33 32 32 31 30 29 28 28
20 20 20 20 19 19 20 20 20 20 20 21 21 22 23 24 25 25 25 25 26 25 25 26 27 27 27 26 26 26 26 26 26 26 26 26 27 27 28 28 28 29 29 29 28 28 28 30 31 34 36 38 38 39 42 47 47 44 41 38 35 33 31 30 29 29 29 29 27 25 23 23 24 26 28 30 31 32 31 30 29 29 28 28 27
22 22 21 21 21 21 21 21 21 21 21 21 21 22 23 24 24 25 25 25 25 25 25 26 26 26 27 27 26 26 26 26 26 26 26 26 26 27 27 28 28 29 29 29 29 29 29 30 30 31 32 35 37 37 39 43 46 45 41 36 33 31 30 29 28 28 27 27 25 23 21 21 22 24 26 28 29 29 28 27 27 26 26 26 26
23 23 22 22 22 21 21 22 23 23 23 22 22 22 23 24 24 25 25 25 25 24 24 25 26 26 27 27 27 27 27 27 27 27 27 27 27 28 28 28 28 29 29 29 29 29 30 31 31 30 30 31 33 35 37 40 42 41 38 35 33 31 30 29 27 26 25 25 23 22 21 21 21 22 23 24 25 25 24 23 23 24 24 25 25
Wind_Direction
236 235 237 240 240 239 239 239 240 241 243 244 245 251 254 255 257 258 259 260 259 257 257 258 259 259 259 258 258 257 254 252 252 251 251 250 246 242 241 242 246 250 251 249 245 243 245 250 257 263 268 272 277 279 280 280 281 284 287 290 294 295 296 295 295 294 293 293 293 291 290 288 286 284 281 280 279 279 279 278 278 277 277 279 281
239 237 235 237 238 238 239 240 242 244 246 247 248 250 252 252 255 257 258 258 257 257 258 259 261 261 262 263 263 263 262 259 256 254 251 248 245 241 239 240 244 247 246 243 240 239 240 244 251 260 267 274 278 280 281 282 284 287 290 293 295 296 296 296 295 294 294 294 294 293 292 289 288 287 285 283 281 280 279 279 279 277 276 276 279
241 241 239 237 236 237 237 239 242 245 249 251 252 253 254 254 255 256 258 259 259 258 258 258 260 262 263 263 264 266 266 263 260 257 253 249 245 243 241 242 245 246 245 243 244 246 248 249 252 257 263 269 275 278 280 284 287 290 293 296 297 297 297 295 294 293 292 292 292 291 290 289 287 286 285 284 283 281 280 280 280 280 278 276 276
241 244 245 243 240 239 239 240 243 247 250 252 253 254 256 255 254 255 257 259 260 260 259 258 259 261 263 264 264 263 262 260 258 258 256 252 247 244 243 244 249 253 256 260 263 266 267 267 268 270 269 269 272 274 278 282 285 289 292 294 295 295 294 293 291 290 289 289 290 290 289 288 286 283 282 282 283 283 282 281 281 282 282 281 278
238 241 244 244 243 242 243 244 247 250 251 252 253 253 253 253 254 255 256 257 259 261 261 260 260 259 259 260 260 258 256 255 257 258 257 252 248 248 250 251 254 257 259 261 262 264 267 269 273 276 277 276 274 274 277 280 283 287 290 291 292 291 290 290 289 288 288 289 289 289 289 288 286 284 281 280 280 281 282 283 283 283 283 283 281
239 238 239 240 242 243 246 248 251 253 253 253 252 250 250 250 251 253 255 256 257 259 260 261 260 259 256 255 254 253 251 250 254 257 257 255 253 253 255 256 257 259 259 258 258 261 266 271 274 277 278 278 277 277 278 280 284 288 289 290 290 290 289 289 289 289 289 290 289 289 289 287 285 283 282 281 280 278 278 280 282 283 283 282 282
242 240 240 240 242 244 247 249 251 251 252 253 251 249 249 248 248 249 251 253 255 258 259 260 259 257 256 255 256 256 254 250 250 253 258 260 260 256 255 255 256 260 263 263 263 264 268 272 273 274 275 274 274 275 277 282 287 289 289 290 291 291 290 289 289 289 289 289 290 291 291 290 287 284 282 282 282 280 278 278 279 280 281 280 280
248 248 247 246 247 249 250 251 251 249 250 252 252 251 251 251 251 250 250 251 252 254 257 257 256 257 258 260 263 264 260 253 249 250 256 262 263 261 259 258 258 259 262 264 265 266 268 270 271 273 275 275 274 274 277 281 285 284 285 289 292 292 292 291 290 290 290 291 292 294 294 292 289 287 285 284 284 283 281 280 279 278 277 278 278
256 253 253 251 253 257 259 259 258 255 254 255 256 255 253 253 253 252 252 251 249 248 251 253 254 257 261 264 267 266 260 253 250 251 255 261 264 264 264 263 262 261 262 262 263 264 264 265 266 270 274 276 276 275 275 277 278 280 283 289 292 294 294 294 293 292 293 294 296 297 298 296 294 292 291 289 288 286 284 281 279 278 276 275 275
260 255 254 258 268 278 282 278 271 266 263 261 261 259 256 254 253 252 252 251 248 246 248 251 255 260 262 263 264 261 254 251 251 252 255 259 261 262 263 263 264 264 263 262 261 262 262 261 263 267 271 273 274 273 273 274 277 281 284 288 292 293 294 294 294 294 294 295 296 297 298 298 298 298 297 295 293 292 289 286 282 279 276 274 274
272 275 272 274 284 295 304 304 296 284 273 267 264 262 258 255 252 251 251 251 251 248 246 250 255 258 258 257 257 254 248 246 247 249 253 258 259 260 260 260 261 262 261 259 258 260 261 261 262 265 267 270 270 270 272 275 279 283 286 289 291 292 293 293 293 293 294 295 296 297 298 299 299 299 300 299 298 296 293 291 287 283 279 276 274
276 285 283 280 285 292 297 304 307 303 290 276 269 264 260 256 253 253 252 250 249 248 245 247 250 252 254 255 256 253 245 241 243 246 252 257 259 258 258 257 257 257 257 258 259 260 261 262 263 264 266 270 272 273 276 279 281 284 287 289 291 292 292 291 289 290 292 294 296 298 298 299 299 299 301 302 302 300 297 294 292 287 282 278 276
269 275 278 277 280 285 289 295 302 305 299 285 274 268 262 258 255 253 251 248 247 247 245 246 249 253 257 258 258 255 247 242 243 247 253 257 257 256 255 256 257 257 258 262 265 264 263 264 264 266 270 273 274 276 278 280 281 284 287 290 291 291 289 287 287 290 292 294 296 297 297 298 299 299 301 304 305 304 301 298 295 291 286 281 277
258 265 270 271 273 277 283 289 296 299 295 284 274 269 264 259 254 250 247 246 246 246 247 249 252 257 260 261 261 259 255 250 249 251 256 258 259 258 258 260 263 263 264 266 268 268 267 266 267 270 273 274 274 275 277 279 282 286 289 291 290 287 286 286 288 291 293 295 296 296 296 297 298 300 301 304 305 305 302 299 296 292 288 284 281
249 255 260 264 269 274 280 287 293 294 288 278 270 265 263 260 255 249 245 244 246 245 246 248 253 257 261 265 265 263 260 258 257 258 260 262 263 262 261 263 266 267 268 269 269 269 268 268 270 271 271 271 273 275 278 280 283 286 288 288 286 286 285 286 289 293 295 297 298 297 297 297 298 299 301 302 303 304 302 297 293 290 288 287 286
245 250 253 257 264 273 281 287 291 288 281 272 265 262 260 258 255 251 246 244 244 244 244 247 252 257 262 266 267 265 261 260 261 262 263 264 266 266 264 263 265 267 269 271 271 271 271 271 272 272 271 269 271 274 276 277 279 282 284 284 283 284 285 286 290 294 297 299 300 299 298 298 298 299 300 301 301 301 299 295 290 287 286 287 286
242 244 248 253 262 271 279 285 287 282 273 265 261 259 257 256 254 251 247 244 243 242 242 245 250 256 262 266 268 266 262 260 261 262 263 264 266 266 265 264 265 266 267 269 271 272 273 273 273 271 270 269 269 270 272 272 274 279 282 282 281 283 285 287 291 294 296 299 300 300 299 299 300 300 300 300 299 298 296 291 286 284 284 285 283
237 239 244 252 259 265 273 279 280 274 265 257 254 253 252 253 252 250 246 243 241 240 241 244 248 255 261 264 266 264 260 259 259 260 262 264 265 265 264 263 265 266 266 268 271 272 274 274 273 272 271 270 268 268 269 271 274 279 282 282 282 284 285 287 290 293 295 297 298 298 298 299 300 301 301 300 298 295 292 287 283 282 283 283 281
234 237 242 248 253 258 265 272 274 268 258 250 246 245 246 249 249 248 244 241 239 239 240 243 248 253 258 259 260 257 254 256 259 260 262 263 264 264 264 263 264 265 266 268 270 271 272 272 272 273 273 271 268 267 269 272 275 279 280 282 284 284 283 284 288 292 294 296 297 296 295 296 298 300 301 300 297 293 289 285 281 280 282 283 281
236 238 240 244 249 255 261 266 268 264 254 246 242 240 241 244 246 245 243 241 240 240 242 245 248 252 253 253 254 251 249 253 258 261 263 264 264 265 265 266 267 267 267 268 269 270 271 270 271 273 273 272 270 268 268 271 274 276 277 280 283 281 280 283 287 290 293 295 296 293 292 294 296 297 298 298 297 292 288 283 281 280 282 283 282
238 238 240 243 247 252 257 260 260 256 248 242 238 237 239 242 243 244 243 242 242 243 245 247 248 249 248 248 250 249 247 249 254 258 261 263 263 264 265 266 268 269 269 269 270 270 270 269 270 272 272 271 270 269 270 271 273 274 275 278 279 278 278 283 287 290 294 294 292 290 290 292 294 295 296 297 295 291 286 283 283 283 284 283 282
239 241 244 247 250 253 255 254 253 250 244 239 236 235 238 241 243 245 245 244 244 245 247 247 246 245 246 247 249 250 250 251 253 257 262 264 265 265 266 267 268 269 270 271 272 273 272 271 270 270 272 272 272 272 272 273 273 273 273 274 275 276 279 283 287 291 293 291 289 288 289 292 293 294 295 296 294 289 286 285 285 285 283 282 282
245 249 254 257 258 259 255 248 247 247 243 239 236 234 237 242 245 247 247 246 246 245 245 245 243 242 244 247 249 251 252 253 255 259 264 267 268 268 269 268 268 269 269 270 271 272 273 273 272 272 273 273 273 273 273 273 274 275 273 271 272 276 279 283 287 291 291 288 287 288 290 292 293 292 293 293 291 287 286 285 282 280 279 280 281
255 261 266 266 263 257 248 241 242 245 242 239 236 234 236 241 245 248 249 247 245 244 242 241 240 239 242 246 249 251 252 252 255 259 264 267 270 272 273 272 271 271 271 272 272 273 274 274 274 272 272 271 271 271 271 272 274 275 274 272 274 277 280 283 287 289 289 288 288 289 290 292 293 292 290 289 285 282 281 278 275 275 277 278 279
261 263 265 263 255 244 237 236 240 241 240 238 235 233 235 239 243 247 248 247 245 242 240 239 237 237 240 243 247 249 250 249 251 256 262 266 270 273 274 275 275 275 275 276 276 275 274 272 271 270 270 271 272 272 272 271 272 273 273 273 274 276 279 283 287 288 288 288 288 289 292 294 292 289 286 282 277 274 272 271 272 275 278 280 280
255 253 251 245 237 231 233 236 237 238 237 236 234 233 234 237 241 244 245 244 242 240 238 236 236 237 238 240 243 246 247 247 249 254 260 264 267 270 273 275 277 278 279 279 278 276 273 272 272 273 273 272 271 271 270 270 270 272 272 273 273 274 278 282 285 285 286 287 288 290 294 294 290 285 280 275 270 267 266 269 273 278 281 282 282
245 242 237 232 229 230 234 237 238 239 238 236 235 235 235 236 239 241 243 242 240 239 238 237 238 239 239 239 240 241 243 246 249 254 259 262 264 267 269 273 276 279 281 280 278 275 274 273 272 272 271 269 268 268 268 268 269 271 271 271 271 273 277 281 282 283 285 286 288 292 294 292 286 279 273 268 265 264 266 270 275 279 280 281 282
238 235 232 230 228 229 233 238 240 240 240 239 237 234 234 235 237 239 240 240 239 238 238 238 238 239 239 239 240 241 243 246 250 254 257 260 262 264 267 270 273 276 277 277 276 275 275 274 273 271 270 268 268 267 266 267 268 268 268 268 268 271 275 278 280 282 284 286 288 292 293 289 281 273 267 264 264 265 269 273 276 277 279 280 281
231 232 232 231 231 231 233 236 238 239 239 239 237 233 230 231 234 235 235 235 236 237 238 237 237 238 240 241 242 244 246 249 253 257 259 261 263 265 268 271 272 274 274 275 277 277 276 276 277 275 272 270 269 267 265 264 265 266 266 265 267 270 273 275 279 283 285 287 289 291 290 285 275 267 265 264 266 269 273 275 276 278 279 280 279
228 231 233 234 235 234 233 233 235 235 234 235 236 233 229 228 231 234 234 233 234 236 237 237 238 240 243 245 247 250 252 255 258 261 264 266 267 270 272 273 274 275 276 275 276 278 279 279 278 276 272 269 268 267 264 261 262 264 265 265 267 269 270 274 280 284 286 287 288 288 286 280 269 263 265 266 269 273 275 277 278 278 277 277 277
228 230 232 233 234 234 232 231 232 233 232 233 234 235 232 228 230 234 236 236 235 236 238 239 240 242 245 248 251 254 256 258 260 262 264 267 269 271 273 274 274 275 275 274 274 277 281 282 281 277 272 269 268 268 264 260 260 261 263 264 266 268 270 275 282 284 285 286 285 284 282 274 262 261 264 266 270 274 276 277 276 274 273 276 280
234 235 236 235 234 234 233 233 234 234 234 234 235 236 236 233 233 235 237 238 238 239 241 243 245 247 250 253 255 257 259 261 262 263 265 266 269 270 271 271 271 271 272 272 273 275 280 284 285 282 275 271 270 269 264 260 259 260 261 263 264 266 271 277 281 282 283 284 283 282 279 268 258 258 262 264 268 272 273 273 271 270 273 278 281
241 243 244 242 239 237 237 239 239 238 239 239 239 240 241 241 241 241 241 242 243 245 247 249 251 254 256 258 260 262 263 264 265 266 267 268 269 270 270 270 269 269 270 272 273 274 278 282 285 284 279 273 270 267 263 260 259 259 259 260 262 265 272 276 278 279 282 283 282 281 276 266 257 256 259 261 264 266 267 266 265 267 273 278 281
240 243 244 244 244 242 241 242 242 243 244 245 245 246 247 247 248 248 249 250 250 251 253 254 256 258 260 262 264 264 264 265 266 267 269 270 269 269 269 270 271 271 271 272 273 274 275 278 282 284 281 272 265 261 259 258 258 257 256 257 260 265 270 273 274 276 279 281 281 280 275 266 258 255 256 258 259 260 261 261 262 266 272 278 281
241 243 243 244 244 244 245 245 245 246 247 248 250 251 252 253 254 254 255 255 256 257 258 258 259 261 262 263 264 264 264 264 265 266 268 269 269 269 270 270 271 272 273 274 275 274 274 274 277 281 280 271 260 255 254 255 256 256 255 256 261 265 268 269 271 274 277 278 278 278 274 266 258 256 255 255 256 256 255 256 260 265 272 277 282
243 244 244 244 243 242 243 245 246 248 250 251 252 253 254 255 256 256 257 257 257 257 258 259 261 263 263 264 264 264 263 263 263 264 265 267 268 269 270 270 271 271 272 274 275 276 275 274 275 277 278 270 259 254 253 254 254 256 257 258 260 263 264 266 270 274 276 277 277 276 272 266 258 255 254 254 254 253 251 252 256 263 271 277 282
242 242 243 244 244 243 242 243 245 247 250 253 255 256 257 258 258 258 258 258 258 257 257 257 259 260 262 263 264 265 265 266 266 266 266 267 268 270 271 271 271 272 272 273 274 274 274 274 273 273 273 268 260 254 254 254 254 256 257 258 259 261 262 265 270 273 274 277 277 275 272 266 259 254 252 252 252 250 249 250 254 261 269 277 282
241 241 242 242 243 245 246 246 245 246 248 251 254 257 259 260 261 261 261 262 262 262 262 262 262 262 262 263 264 265 266 267 268 268 268 269 269 270 271 271 271 271 271 272 272 271 271 272 271 270 269 266 259 252 250 252 255 255 256 256 256 258 260 263 266 270 274 277 278 275 271 266 260 254 252 250 250 248 247 249 253 260 268 276 283
242 243 243 243 243 243 244 247 249 250 251 252 253 255 257 259 261 263 264 265 266 266 266 266 265 264 264 263 264 265 266 266 267 268 269 269 270 271 271 272 271 270 270 270 270 269 269 269 269 267 266 265 261 253 248 250 253 252 251 251 252 254 257 260 264 268 273 276 277 274 270 266 260 255 252 250 248 247 246 248 252 259 266 273 281
245 245 246 246 246 246 247 250 253 254 255 255 255 255 257 258 260 262 263 265 266 266 266 265 264 263 263 263 263 264 265 266 268 268 269 270 271 271 272 272 272 272 271 270 270 269 268 268 267 265 263 264 263 257 251 250 249 246 244 245 248 251 254 257 261 265 270 274 275 273 269 266 261 256 251 249 248 246 246 247 250 256 262 270 277
249 250 250 250 251 252 253 254 256 257 259 260 260 261 262 262 263 263 264 265 266 267 268 269 268 268 267 267 267 268 268 269 269 269 270 271 271 271 272 272 272 273 273 272 270 269 268 267 266 262 259 260 260 257 252 249 246 242 240 241 244 247 250 253 258 263 267 270 271 270 268 266 261 255 250 248 247 246 245 246 248 252 258 266 273
252 250 250 250 251 253 254 256 258 260 261 263 265 267 268 269 270 270 271 271 272 273 274 275 275 275 274 274 274 274 274 274 274 273 272 273 273 272 272 272 272 272 272 271 270 268 266 266 265 261 257 255 255 254 252 247 244 241 241 241 242 244 247 250 254 259 263 266 267 266 266 265 262 255 249 246 246 246 245 245 247 250 255 262 270
250 248 247 247 248 251 254 256 259 261 262 265 267 268 270 272 273 275 277 279 279 280 281 280 280 280 280 280 280 281 281 282 281 280 278 277 276 275 275 274 274 274 273 272 271 269 266 265 265 262 256 252 250 251 251 248 244 243 243 243 244 244 245 247 250 253 257 261 263 264 265 265 263 257 250 245 245 246 246 246 247 250 254 260 267
250 250 251 252 253 254 255 257 259 261 263 265 266 267 269 271 272 274 276 278 280 281 282 283 283 284 285 285 285 286 286 286 286 285 283 281 278 277 276 277 277 277 276 275 273 270 267 266 265 263 258 251 248 248 249 249 247 244 244 244 245 246 247 248 250 251 254 258 261 263 263 264 263 258 251 246 244 245 245 246 247 250 254 259 265
255 256 257 257 257 257 257 257 258 260 261 263 264 266 268 269 271 272 273 274 275 276 277 279 281 282 283 283 284 285 286 286 285 285 284 283 282 280 279 278 278 279 280 279 277 273 269 266 265 264 260 252 245 244 247 248 247 245 243 243 245 247 250 251 251 252 253 255 257 259 261 262 261 257 251 246 244 244 245 246 247 250 253 258 263
259 259 260 260 260 259 258 258 259 260 262 264 266 268 270 271 273 274 274 275 275 276 276 278 280 281 282 284 285 285 286 285 285 284 284 283 283 283 282 281 281 280 281 281 280 277 273 268 265 264 261 253 246 242 243 244 244 243 243 244 245 247 250 250 251 252 253 253 254 256 258 259 258 255 250 245 243 244 244 245 247 249 253 257 261
264 264 264 265 266 265 265 266 266 266 267 268 269 270 271 272 273 274 275 276 277 279 281 283 284 284 285 286 287 287 288 288 288 287 287 286 286 285 285 285 284 284 284 284 282 280 278 273 267 263 261 258 251 244 240 239 239 240 242 244 246 247 248 248 250 251 252 252 253 254 255 256 255 252 247 243 242 243 244 245 246 249 251 255 258
269 270 270 271 271 271 271 271 271 270 270 270 270 271 271 272 273 274 276 277 278 280 281 282 282 283 284 284 284 285 287 288 289 290 289 289 289 288 288 287 288 288 288 288 286 284 282 278 273 267 263 261 259 250 240 234 234 237 240 242 244 246 246 246 247 248 249 250 251 251 251 252 251 248 244 241 240 241 243 244 245 248 250 253 257
275 275 275 274 275 275 274 274 273 273 272 271 270 271 273 274 276 277 278 278 279 279 278 278 278 279 279 279 280 281 283 285 286 288 288 288 289 289 289 289 289 290 290 290 289 289 286 283 280 275 268 264 265 261 247 234 230 233 236 238 239 240 241 242 243 244 245 247 248 249 249 249 247 244 241 240 240 241 242 243 246 248 250 253 255
278 278 278 278 279 279 279 279 279 277 275 275 275 277 278 279 280 281 281 281 281 280 278 277 277 278 278 278 278 279 280 281 283 284 285 285 286 287 288 289 290 291 291 290 290 290 290 288 285 281 274 268 266 266 258 243 232 228 228 229 232 234 237 238 239 240 242 245 247 247 246 245 242 240 240 239 240 241 242 243 245 247 249 250 252
275 276 277 278 279 279 279 279 280 280 281 282 283 283 283 283 285 286 286 285 284 283 280 278 277 277 278 278 278 278 278 279 280 282 283 283 284 285 286 288 289 290 291 292 291 290 290 290 288 285 279 271 267 267 264 251 235 223 217 219 224 229 233 236 237 239 241 244 246 247 245 243 240 238 237 238 239 239 240 241 242 244 246 247 248
Height
3117 3118 3120 3121 3122 3123 3125 3126 3127 3128 3129 3129 3130 3131 3132 3133 3134 3134 3134 3135 3135 3135 3135 3135 3135 3136 3137 3138 3139 3140 3141 3142 3142 3143 3144 3144 3144 3145 3145 3146 3146 3148 3149 3150 3150 3150 3151 3151 3152 3153 3154 3154 3155 3155 3155 3155 3155 3155 3154 3154 3154 3154 3154 3153 3154 3154 3154 3153 3153 3153 3152 3152 3151 3150 3150 3149 3148 3148 3147 3147 3147 3147 3147 3146 3145
3115 3116 3117 3118 3120 3121 3123 3123 3124 3126 3126 3127 3129 3129 3130 3131 3131 3131 3132 3133 3133 3133 3133 3133 3133 3134 3134 3135 3136 3137 3139 3140 3141 3141 3142 3142 3143 3143 3143 3144 3145 3146 3146 3146 3146 3146 3147 3148 3150 3151 3152 3152 3153 3153 3153 3153 3153 3153 3152 3152 3152 3151 3151 3151 3151 3151 3152 3151 3150 3150 3150 3149 3149 3148 3147 3147 3147 3146 3145 3145 3144 3144 3143 3143 3143
3113 3114 3115 3116 3118 3119 3120 3121 3122 3123 3123 3124 3126 3127 3128 3129 3129 3129 3130 3130 3131 3131 3131 3131 3131 3131 3132 3133 3134 3135 3136 3137 3138 3139 3140 3140 3141 3141 3142 3142 3143 3143 3143 3144 3145 3145 3146 3147 3148 3148 3149 3149 3150 3150 3150 3150 3150 3150 3150 3150 3149 3149 3148 3148 3147 3147 3148 3149 3148 3147 3147 3146 3146 3145 3144 3143 3143 3143 3143 3143 3142 3141 3141 3140 3140
3111 3112 3113 3114 3115 3116 3118 3119 3120 3121 3121 3121 3123 3124 3125 3126 3126 3126 3127 3127 3128 3129 3129 3129 3129 3129 3130 3131 3132 3133 3133 3134 3135 3136 3137 3138 3138 3138 3139 3140 3141 3142 3144 3146 3146 3147 3147 3148 3148 3147 3147 3147 3147 3147 3147 3148 3147 3147 3147 3147 3146 3146 3145 3144 3144 3143 3144 3144 3145 3144 3143 3143 3143 3142 3141 3140 3140 3139 3139 3139 3139 3139 3138 3138 3138
3109 3110 3111 3112 3113 3114 3116 3117 3118 3118 3118 3118 3119 3121 3122 3123 3123 3123 3124 3125 3126 3126 3126 3126 3127 3127 3128 3128 3129 3130 3131 3132 3133 3134 3135 3135 3135 3136 3137 3138 3139 3140 3142 3143 3144 3145 3145 3146 3146 3146 3146 3145 3145 3145 3144 3144 3144 3144 3144 3143 3143 3142 3141 3140 3140 3140 3139 3140 3141 3140 3139 3139 3138 3138 3137 3136 3137 3137 3136 3135 3135 3135 3135 3135 3134
3107 3108 3109 3110 3111 3112 3114 3115 3115 3116 3115 3115 3116 3118 3119 3120 3121 3121 3121 3122 3123 3123 3123 3123 3124 3124 3125 3125 3126 3127 3128 3129 3130 3131 3131 3132 3134 3135 3136 3137 3137 3138 3138 3139 3141 3142 3142 3143 3143 3143 3143 3143 3142 3142 3141 3141 3141 3141 3140 3139 3139 3138 3138 3137 3137 3136 3136 3136 3136 3136 3136 3135 3134 3134 3133 3132 3133 3133 3132 3132 3132 3131 3131 3131 3131
3106 3107 3108 3109 3110 3111 3112 3112 3113 3113 3113 3112 3113 3115 3116 3117 3118 3118 3118 3119 3119 3120 3120 3121 3121 3121 3122 3122 3123 3124 3125 3126 3126 3127 3128 3130 3132 3134 3134 3135 3135 3135 3136 3137 3138 3139 3139 3140 3140 3140 3140 3140 3139 3139 3138 3138 3138 3137 3137 3136 3136 3136 3135 3135 3134 3133 3133 3133 3132 3132 3132 3131 3129 3129 3129 3128 3128 3129 3128 3129 3129 3128 3127 3127 3127
3104 3105 3106 3107 3108 3109 3110 3110 3111 3111 3110 3109 3111 3113 3114 3114 3115 3116 3116 3116 3117 3117 3117 3117 3118 3119 3120 3120 3120 3121 3122 3122 3123 3124 3125 3127 3129 3130 3131 3132 3132 3132 3133 3134 3135 3136 3137 3137 3137 3137 3137 3137 3136 3136 3135 3135 3135 3134 3134 3133 3133 3133 3132 3131 3131 3130 3130 3130 3129 3129 3128 3128 3126 3125 3125 3125 3124 3124 3124 3124 3125 3125 3124 3123 3123
3103 3104 3105 3106 3107 3107 3108 3108 3108 3109 3108 3107 3108 3110 3111 3112 3112 3113 3114 3114 3115 3114 3114 3114 3115 3117 3118 3118 3118 3118 3119 3120 3120 3121 3123 3124 3126 3127 3128 3128 3129 3129 3130 3131 3131 3132 3133 3133 3133 3134 3134 3133 3133 3132 3132 3132 3131 3131 3131 3130 3130 3129 3129 3128 3127 3127 3126 3126 3125 3125 3125 3125 3123 3122 3121 3121 3120 3120 3120 3120 3120 3120 3120 3120 3119
3102 3103 3104 3104 3105 3105 3106 3106 3106 3107 3106 3106 3106 3106 3107 3108 3109 3110 3111 3112 3112 3112 3112 3112 3113 3114 3115 3115 3116 3116 3117 3118 3119 3119 3120 3122 3123 3124 3125 3126 3126 3127 3127 3128 3128 3129 3130 3130 3130 3131 3131 3130 3130 3129 3129 3129 3129 3128 3128 3127 3127 3126 3126 3125 3124 3124 3123 3123 3122 3122 3122 3121 3121 3119 3118 3118 3117 3117 3116 3116 3116 3116 3116 3115 3115
3100 3101 3102 3102 3103 3103 3104 3104 3104 3105 3105 3104 3104 3104 3104 3105 3106 3107 3108 3109 3110 3110 3110 3110 3111 3111 3111 3112 3113 3114 3116 3117 3117 3118 3119 3119 3121 3122 3122 3123 3124 3124 3124 3125 3125 3125 3126 3126 3127 3128 3128 3127 3127 3126 3126 3126 3126 3126 3125 3124 3124 3123 3123 3122 3122 3121 3120 3120 3119 3119 3119 3118 3118 3117 3116 3115 3114 3114 3113 3112 3111 3111 3111 3111 3111
3096 3098 3099 3100 3101 3101 3102 3102 3102 3102 3102 3102 3102 3101 3101 3101 3102 3103 3105 3106 3106 3107 3107 3108 3108 3108 3109 3109 3110 3112 3113 3114 3114 3115 3116 3117 3118 3119 3120 3121 3121 3121 3121 3122 3122 3122 3122 3123 3124 3124 3124 3124 3123 3123 3122 3123 3122 3122 3122 3121 3121 3120 3120 3119 3119 3118 3118 3117 3117 3116 3115 3115 3115 3114 3113 3112 3111 3110 3109 3108 3107 3107 3107 3107 3107
3093 3094 3095 3097 3098 3099 3099 3100 3100 3100 3100 3100 3099 3099 3099 3099 3099 3100 3101 3102 3102 3103 3104 3105 3106 3106 3106 3107 3107 3108 3109 3110 3111 3112 3113 3114 3115 3116 3117 3118 3118 3118 3118 3119 3119 3119 3119 3120 3120 3120 3120 3120 3119 3119 3119 3119 3119 3119 3119 3118 3118 3118 3117 3116 3116 3116 3115 3115 3115 3114 3112 3112 3111 3111 3110 3109 3108 3107 3106 3105 3104 3103 3102 3102 3102
3090 3091 3092 3093 3094 3095 3096 3097 3097 3097 3097 3097 3096 3096 3097 3097 3097 3098 3098 3098 3099 3100 3101 3102 3102 3103 3103 3104 3104 3105 3106 3106 3107 3108 3109 3109 3110 3111 3112 3113 3114 3115 3115 3116 3116 3116 3116 3116 3117 3117 3117 3117 3117 3117 3117 3116 3116 3116 3115 3115 3115 3115 3114 3114 3113 3113 3113 3112 3112 3111 3110 3109 3108 3107 3106 3105 3105 3104 3103 3102 3101 3099 3098 3098 3098
3087 3088 3089 3090 3091 3091 3092 3093 3094 3094 3094 3094 3094 3094 3095 3095 3096 3095 3096 3096 3096 3097 3098 3098 3099 3100 3100 3101 3101 3101 3102 3103 3103 3104 3104 3104 3105 3107 3109 3109 3109 3110 3111 3112 3112 3112 3112 3113 3113 3114 3114 3114 3114 3113 3114 3114 3113 3113 3113 3113 3113 3113 3112 3111 3111 3110 3110 3110 3109 3108 3107 3106 3105 3104 3102 3102 3101 3100 3099 3098 3097 3096 3095 3095 3095
3084 3085 3086 3087 3087 3088 3089 3089 3090 3090 3091 3090 3091 3091 3092 3093 3093 3093 3093 3094 3094 3094 3095 3095 3096 3097 3097 3097 3098 3099 3099 3099 3099 3100 3100 3100 3101 3104 3106 3106 3105 3107 3107 3108 3108 3109 3109 3110 3110 3110 3111 3111 3111 3110 3110 3111 3111 3111 3111 3111 3110 3110 3109 3108 3108 3108 3107 3107 3106 3105 3104 3103 3101 3100 3099 3098 3097 3096 3095 3095 3094 3093 3092 3092 3092
3081 3082 3083 3084 3084 3085 3085 3085 3086 3086 3087 3087 3087 3088 3089 3090 3091 3090 3090 3091 3092 3092 3093 3093 3093 3094 3094 3095 3095 3096 3096 3096 3096 3096 3097 3097 3098 3100 3102 3102 3102 3103 3104 3104 3105 3105 3106 3106 3107 3107 3107 3108 3108 3107 3107 3107 3108 3108 3108 3108 3107 3107 3106 3105 3105 3105 3104 3103 3103 3102 3101 3099 3098 3097 3096 3094 3093 3093 3092 3091 3090 3089 3089 3090 3089
3077 3078 3079 3080 3080 3081 3081 3081 3081 3082 3082 3083 3084 3085 3086 3087 3087 3088 3088 3088 3089 3090 3090 3090 3090 3091 3092 3092 3093 3093 3094 3093 3093 3094 3094 3094 3095 3096 3097 3098 3099 3099 3100 3101 3101 3102 3103 3103 3103 3103 3104 3104 3104 3104 3103 3104 3104 3104 3104 3104 3104 3104 3103 3101 3101 3101 3101 3100 3100 3099 3097 3096 3094 3093 3092 3091 3090 3089 3088 3087 3087 3086 3087 3087 3086
3072 3073 3074 3075 3076 3076 3076 3077 3077 3077 3078 3079 3080 3082 3083 3084 3084 3085 3085 3085 3086 3087 3087 3087 3088 3088 3089 3089 3090 3091 3091 3091 3091 3091 3091 3091 3092 3093 3094 3094 3095 3096 3097 3097 3098 3098 3099 3099 3099 3100 3100 3100 3100 3100 3099 3099 3100 3100 3100 3100 3101 3101 3100 3098 3098 3098 3098 3097 3097 3096 3094 3093 3092 3090 3089 3087 3086 3085 3085 3084 3084 3084 3084 3084 3084
3067 3068 3069 3070 3071 3071 3072 3072 3072 3073 3074 3075 3077 3078 3079 3080 3081 3081 3082 3083 3084 3084 3084 3085 3086 3086 3086 3086 3087 3088 3089 3089 3089 3089 3089 3089 3089 3090 3090 3091 3092 3093 3093 3094 3094 3095 3095 3096 3096 3097 3097 3097 3096 3096 3095 3095 3095 3096 3096 3097 3098 3098 3096 3095 3095 3095 3095 3094 3094 3093 3092 3090 3089 3087 3086 3084 3083 3082 3082 3082 3081 3081 3082 3082 3081
3063 3063 3064 3065 3065 3066 3067 3067 3067 3068 3069 3071 3073 3074 3075 3076 3077 3078 3079 3080 3081 3081 3082 3082 3083 3083 3083 3083 3084 3085 3086 3086 3087 3087 3087 3087 3087 3087 3088 3089 3089 3089 3090 3090 3090 3091 3092 3092 3093 3093 3093 3093 3092 3092 3092 3091 3091 3092 3093 3094 3094 3094 3093 3093 3092 3092 3092 3091 3091 3090 3089 3087 3086 3084 3083 3082 3080 3080 3079 3079 3079 3079 3079 3079 3079
3058 3058 3059 3060 3061 3061 3062 3063 3063 3063 3064 3066 3068 3070 3071 3073 3074 3075 3076 3077 3078 3079 3079 3079 3080 3080 3080 3080 3081 3082 3083 3083 3084 3084 3084 3084 3084 3084 3085 3085 3086 3086 3086 3086 3087 3088 3089 3089 3089 3089 3089 3089 3088 3088 3088 3088 3088 3088 3090 3090 3090 3090 3090 3090 3090 3089 3089 3088 3087 3086 3085 3084 3082 3081 3080 3079 3078 3077 3077 3077 3077 3077 3076 3076 3076
3052 3053 3055 3056 3057 3057 3057 3058 3059 3059 3060 3061 3064 3066 3067 3069 3070 3071 3073 3074 3075 3076 3076 3076 3077 3077 3077 3078 3078 3079 3080 3080 3081 3081 3081 3081 3081 3081 3082 3082 3082 3082 3082 3083 3084 3084 3085 3086 3086 3086 3086 3085 3085 3085 3085 3085 3084 3085 3086 3087 3087 3087 3087 3087 3087 3086 3086 3084 3083 3083 3082 3080 3079 3078 3077 3076 3075 3075 3075 3075 3075 3074 3074 3073 3073
3046 3048 3049 3050 3051 3052 3052 3053 3054 3055 3056 3058 3060 3061 3063 3065 3066 3068 3069 3071 3072 3072 3073 3073 3074 3074 3074 3075 3075 3076 3076 3077 3077 3078 3079 3079 3078 3078 3078 3079 3078 3078 3078 3079 3080 3081 3082 3082 3083 3083 3082 3082 3082 3082 3082 3082 3082 3082 3083 3083 3083 3083 3083 3083 3083 3083 3082 3081 3080 3079 3078 3077 3075 3074 3073 3073 3073 3073 3072 3072 3072 3071 3071 3071 3070
3041 3042 3043 3043 3044 3046 3047 3048 3050 3051 3053 3054 3056 3058 3059 3061 3062 3064 3066 3067 3068 3069 3069 3070 3070 3071 3071 3072 3072 3073 3073 3073 3074 3075 3075 3076 3076 3075 3075 3075 3074 3074 3075 3076 3077 3078 3078 3079 3079 3079 3079 3079 3079 3079 3079 3079 3079 3079 3079 3079 3080 3080 3080 3080 3080 3079 3078 3077 3076 3075 3074 3073 3072 3071 3070 3070 3070 3070 3070 3069 3069 3069 3068 3068 3067
3036 3037 3038 3039 3040 3042 3043 3044 3045 3047 3049 3050 3052 3054 3055 3057 3059 3061 3062 3064 3064 3065 3066 3067 3067 3068 3068 3069 3070 3070 3070 3070 3071 3072 3072 3072 3072 3072 3072 3071 3071 3070 3071 3072 3073 3073 3074 3075 3075 3075 3075 3075 3074 3074 3075 3075 3075 3075 3076 3076 3076 3077 3077 3076 3076 3075 3074 3073 3072 3071 3071 3070 3068 3067 3067 3067 3067 3067 3067 3066 3066 3066 3066 3066 3065
3031 3032 3034 3035 3037 3038 3039 3040 3042 3043 3045 3047 3049 3050 3052 3053 3055 3056 3058 3060 3061 3062 3062 3063 3064 3065 3066 3066 3067 3066 3066 3067 3068 3068 3068 3068 3069 3069 3068 3068 3067 3067 3067 3067 3067 3067 3069 3070 3071 3071 3070 3070 3069 3069 3070 3071 3072 3072 3072 3073 3073 3073 3073 3072 3072 3071 3071 3070 3069 3068 3067 3066 3065 3064 3064 3064 3064 3063 3063 3063 3063 3064 3063 3063 3063
3028 3029 3031 3032 3034 3035 3036 3037 3039 3040 3042 3044 3045 3046 3048 3049 3051 3053 3055 3056 3058 3058 3059 3060 3061 3062 3063 3063 3063 3063 3064 3065 3065 3065 3064 3064 3065 3064 3064 3064 3063 3063 3062 3062 3062 3063 3064 3065 3065 3066 3066 3066 3066 3065 3066 3067 3067 3068 3068 3069 3069 3069 3069 3068 3068 3068 3067 3066 3065 3064 3064 3063 3062 3061 3061 3061 3060 3060 3061 3061 3061 3061 3061 3061 3060
3025 3027 3028 3030 3031 3032 3033 3034 3036 3037 3039 3040 3041 3042 3044 3046 3048 3049 3050 3052 3054 3055 3056 3057 3058 3058 3059 3059 3060 3060 3061 3062 3061 3060 3060 3060 3060 3060 3060 3059 3058 3058 3058 3058 3057 3058 3060 3061 3061 3062 3062 3062 3061 3061 3062 3063 3063 3064 3064 3065 3065 3065 3065 3065 3064 3064 3063 3062 3061 3061 3060 3060 3059 3058 3058 3058 3057 3057 3058 3058 3058 3058 3058 3058 3058
3023 3024 3026 3027 3028 3029 3030 3032 3033 3034 3036 3037 3038 3039 3041 3043 3044 3045 3046 3048 3050 3051 3052 3053 3054 3054 3055 3056 3056 3056 3057 3057 3056 3055 3055 3055 3055 3056 3055 3054 3054 3054 3054 3054 3053 3054 3055 3057 3057 3057 3057 3057 3057 3057 3057 3058 3059 3059 3060 3060 3061 3061 3061 3061 3061 3060 3059 3058 3058 3057 3057 3057 3056 3056 3055 3055 3055 3055 3055 3055 3055 3055 3055 3055 3055
3021 3022 3023 3023 3024 3025 3027 3029 3030 3032 3033 3034 3035 3036 3038 3039 3041 3041 3043 3044 3046 3047 3048 3049 3050 3050 3051 3051 3052 3052 3053 3052 3052 3052 3051 3051 3051 3051 3050 3049 3049 3050 3050 3049 3049 3050 3051 3052 3053 3053 3053 3052 3052 3053 3053 3053 3054 3055 3055 3056 3056 3056 3057 3057 3057 3056 3055 3055 3054 3053 3053 3053 3053 3053 3053 3052 3052 3052 3053 3053 3053 3052 3052 3052 3052
3019 3019 3020 3021 3022 3023 3024 3025 3027 3028 3029 3031 3032 3033 3034 3036 3037 3038 3039 3041 3042 3043 3044 3045 3045 3046 3046 3047 3047 3048 3048 3048 3047 3047 3047 3047 3047 3047 3046 3045 3045 3045 3045 3045 3045 3046 3047 3047 3048 3049 3048 3048 3048 3049 3049 3049 3050 3050 3051 3051 3052 3052 3052 3053 3053 3052 3052 3051 3050 3050 3050 3050 3050 3050 3050 3050 3049 3050 3050 3050 3050 3050 3050 3049 3049
3016 3017 3018 3019 3020 3021 3022 3023 3023 3024 3025 3027 3028 3029 3031 3032 3033 3035 3036 3037 3038 3040 3040 3041 3041 3042 3042 3043 3043 3044 3044 3044 3043 3042 3043 3043 3043 3042 3042 3041 3041 3041 3041 3041 3041 3042 3042 3043 3043 3044 3044 3044 3044 3044 3044 3045 3046 3046 3046 3047 3048 3048 3048 3048 3048 3048 3048 3047 3046 3046 3046 3047 3047 3047 3047 3047 3047 3047 3047 3048 3048 3047 3047 3047 3046
3013 3014 3015 3016 3017 3019 3019 3020 3020 3021 3022 3023 3025 3026 3027 3029 3030 3031 3032 3034 3035 3036 3037 3037 3037 3038 3038 3039 3039 3039 3039 3039 3038 3038 3038 3038 3038 3037 3037 3037 3036 3036 3036 3036 3037 3038 3038 3038 3039 3039 3039 3040 3040 3040 3040 3041 3042 3042 3043 3043 3044 3044 3044 3044 3044 3044 3044 3043 3043 3043 3043 3043 3043 3044 3044 3044 3044 3044 3045 3045 3045 3044 3044 3044 3043
3011 3011 3012 3014 3015 3016 3017 3017 3018 3018 3019 3020 3022 3023 3024 3025 3026 3028 3029 3030 3031 3032 3032 3033 3033 3033 3034 3035 3035 3035 3034 3034 3034 3034 3034 3033 3033 3033 3033 3032 3032 3032 3032 3032 3032 3033 3033 3034 3034 3035 3035 3035 3036 3036 3036 3037 3038 3038 3039 3039 3040 3040 3039 3040 3040 3040 3040 3040 3039 3039 3039 3040 3040 3040 3040 3040 3041 3041 3042 3042 3042 3041 3041 3041 3040
3009 3009 3010 3011 3012 3013 3014 3015 3015 3016 3017 3018 3019 3020 3021 3022 3023 3024 3025 3026 3027 3027 3028 3028 3028 3028 3029 3030 3030 3029 3029 3030 3030 3030 3029 3029 3028 3028 3028 3028 3027 3027 3027 3027 3028 3028 3028 3029 3030 3030 3031 3031 3032 3032 3033 3033 3033 3034 3035 3035 3035 3035 3035 3035 3036 3036 3036 3036 3036 3036 3035 3036 3037 3037 3037 3038 3038 3038 3039 3039 3039 3039 3038 3038 3038
3007 3007 3008 3009 3010 3011 3012 3012 3013 3014 3014 3015 3016 3017 3018 3019 3019 3020 3021 3022 3022 3023 3024 3025 3025 3025 3025 3025 3025 3025 3024 3025 3025 3025 3025 3024 3024 3024 3024 3023 3022 3022 3022 3023 3023 3023 3024 3025 3025 3026 3026 3027 3027 3028 3028 3029 3029 3029 3030 3030 3031 3031 3031 3031 3031 3031 3032 3032 3032 3032 3032 3032 3033 3034 3034 3034 3035 3035 3036 3036 3036 3036 3036 3035 3035
3004 3005 3006 3007 3008 3008 3009 3010 3011 3011 3012 3012 3013 3013 3014 3015 3016 3016 3017 3018 3018 3019 3020 3020 3021 3021 3022 3022 3021 3020 3020 3020 3021 3021 3021 3020 3020 3019 3019 3019 3018 3018 3018 3018 3018 3018 3019 3020 3021 3021 3022 3022 3022 3023 3023 3024 3025 3025 3025 3025 3026 3026 3026 3026 3027 3027 3027 3028 3028 3028 3028 3028 3029 3030 3030 3031 3032 3032 3032 3033 3033 3033 3033 3033 3032
3002 3003 3004 3005 3006 3007 3007 3008 3008 3009 3009 3010 3010 3011 3011 3012 3012 3013 3014 3014 3015 3015 3016 3016 3017 3017 3018 3017 3017 3016 3016 3016 3017 3017 3016 3016 3015 3015 3015 3014 3014 3014 3014 3014 3014 3014 3014 3015 3016 3016 3016 3016 3017 3017 3018 3019 3019 3020 3020 3021 3021 3021 3022 3022 3022 3022 3023 3023 3024 3024 3024 3025 3025 3026 3026 3027 3028 3029 3029 3029 3030 3030 3030 3030 3030
3001 3001 3002 3003 3004 3004 3005 3005 3006 3006 3007 3007 3007 3008 3008 3009 3009 3010 3010 3011 3011 3012 3012 3013 3013 3013 3013 3013 3012 3012 3012 3012 3012 3012 3011 3011 3011 3010 3010 3010 3010 3010 3010 3010 3009 3009 3009 3010 3010 3011 3011 3011 3011 3012 3013 3013 3014 3014 3015 3015 3016 3017 3017 3018 3018 3018 3018 3019 3019 3020 3020 3021 3021 3021 3022 3024 3025 3025 3025 3026 3026 3027 3027 3027 3027
2999 3000 3000 3001 3002 3002 3003 3003 3003 3004 3004 3004 3004 3005 3005 3006 3006 3007 3007 3007 3008 3008 3008 3009 3009 3009 3009 3009 3008 3008 3008 3008 3008 3008 3007 3006 3006 3006 3005 3005 3005 3005 3005 3004 3004 3004 3003 3004 3004 3005 3005 3006 3006 3006 3007 3008 3008 3009 3009 3010 3011 3012 3012 3013 3014 3014 3014 3014 3015 3015 3016 3016 3017 3017 3018 3020 3021 3021 3022 3022 3023 3023 3023 3024 3023
2997 2998 2999 2999 3000 3000 3000 3000 3001 3001 3001 3001 3001 3002 3002 3002 3002 3003 3003 3004 3004 3004 3004 3005 3005 3005 3005 3004 3004 3003 3003 3004 3004 3003 3003 3002 3002 3001 3001 3001 3000 2999 2999 2999 2999 2998 2998 2998 2998 2999 2999 3000 3001 3001 3001 3002 3003 3003 3004 3004 3005 3006 3007 3008 3009 3009 3009 3010 3010 3011 3012 3012 3012 3013 3014 3015 3016 3017 3018 3018 3019 3019 3020 3020 3020
2995 2996 2997 2997 2998 2998 2998 2998 2998 2998 2998 2998 2999 2999 2999 2999 2999 2999 2999 3000 3000 3000 3000 3000 3000 3000 3000 3000 3000 2999 2999 2999 2999 2999 2999 2998 2998 2997 2997 2996 2995 2994 2994 2993 2993 2993 2992 2992 2992 2993 2993 2994 2995 2996 2997 2998 2998 2998 2999 2999 3000 3001 3002 3002 3003 3004 3004 3005 3006 3007 3007 3007 3008 3008 3009 3011 3012 3013 3014 3014 3015 3016 3016 3017 3017
2994 2994 2995 2995 2996 2996 2996 2996 2996 2995 2995 2996 2996 2996 2996 2996 2996 2996 2997 2997 2996 2996 2996 2996 2996 2996 2996 2996 2996 2995 2995 2995 2994 2994 2994 2994 2993 2993 2992 2991 2990 2989 2988 2988 2987 2987 2987 2986 2986 2987 2987 2988 2989 2990 2991 2993 2993 2994 2994 2994 2995 2996 2997 2998 2998 2999 2999 3000 3001 3002 3002 3002 3003 3003 3005 3006 3007 3009 3010 3010 3011 3012 3013 3013 3013
2992 2992 2993 2993 2993 2993 2993 2993 2993 2993 2993 2993 2993 2993 2993 2993 2993 2993 2993 2993 2993 2993 2993 2993 2993 2993 2993 2993 2992 2992 2991 2991 2990 2990 2989 2989 2988 2988 2987 2986 2985 2984 2983 2983 2982 2981 2981 2981 2980 2981 2981 2982 2983 2984 2985 2987 2988 2989 2989 2990 2990 2991 2993 2993 2994 2994 2995 2995 2996 2997 2997 2997 2998 2999 3000 3001 3003 3004 3005 3006 3007 3008 3008 3009 3010
2989 2990 2990 2990 2990 2990 2990 2990 2990 2990 2990 2990 2990 2990 2990 2990 2990 2990 2990 2990 2990 2990 2990 2990 2989 2989 2989 2989 2988 2988 2987 2986 2985 2985 2984 2984 2983 2982 2982 2981 2980 2979 2978 2978 2977 2976 2975 2975 2975 2974 2975 2976 2977 2978 2979 2981 2982 2983 2984 2985 2985 2987 2988 2989 2989 2989 2990 2990 2991 2991 2992 2992 2993 2994 2995 2997 2998 3000 3001 3002 3003 3004 3004 3005 3006
2986 2987 2987 2987 2987 2987 2986 2987 2987 2987 2987 2987 2987 2987 2987 2987 2987 2987 2987 2987 2987 2986 2986 2986 2986 2985 2985 2985 2984 2983 2983 2982 2981 2980 2979 2978 2978 2977 2976 2975 2974 2974 2973 2973 2972 2971 2970 2969 2968 2968 2969 2970 2970 2971 2972 2974 2976 2977 2979 2980 2981 2982 2984 2984 2984 2985 2985 2986 2986 2986 2987 2987 2988 2989 2990 2992 2993 2995 2996 2998 2999 2999 3000 3001 3002
2983 2983 2983 2983 2983 2983 2983 2983 2983 2984 2984 2984 2984 2984 2984 2984 2984 2984 2984 2983 2983 2983 2983 2982 2982 2981 2981 2980 2980 2979 2978 2977 2977 2976 2975 2974 2973 2972 2971 2970 2969 2968 2968 2967 2967 2966 2964 2963 2962 2962 2962 2962 2963 2964 2965 2967 2969 2971 2973 2975 2976 2978 2979 2979 2979 2980 2981 2981 2981 2981 2982 2982 2983 2984 2986 2987 2989 2991 2992 2993 2994 2995 2996 2997 2998
2980 2980 2980 2980 2980 2980 2980 2980 2980 2980 2980 2980 2980 2980 2980 2980 2980 2980 2980 2980 2979 2979 2979 2978 2977 2977 2977 2976 2975 2975 2974 2973 2972 2971 2971 2970 2969 2968 2967 2966 2965 2964 2963 2962 2961 2961 2959 2958 2957 2956 2956 2956 2956 2956 2957 2960 2962 2964 2966 2969 2971 2973 2974 2974 2974 2975 2976 2976 2976 2977 2977 2978 2979 2980 2982 2983 2985 2986 2988 2989 2990 2991 2992 2993 2994
2977 2977 2977 2977 2977 2977 2977 2977 2977 2977 2977 2977 2977 2977 2977 2977 2976 2976 2976 2976 2975 2975 2974 2974 2973 2973 2972 2972 2971 2970 2969 2969 2968 2967 2966 2966 2965 2964 2962 2961 2960 2959 2958 2957 2956 2956 2955 2953 2952 2951 2951 2951 2950 2950 2951 2953 2955 2957 2960 2963 2966 2967 2968 2969 2969 2970 2971 2971 2972 2972 2973 2973 2974 2976 2977 2979 2981 2982 2983 2984 2986 2987 2988 2989 2989
2974 2974 2974 2974 2974 2974 2974 2974 2974 2974 2974 2974 2973 2973 2973 2973 2972 2972 2972 2972 2971 2971 2970 2970 2969 2969 2968 2967 2967 2966 2965 2965 2964 2963 2962 2961 2960 2959 2958 2957 2956 2955 2954 2953 2952 2951 2950 2948 2947 2947 2946 2945 2945 2945 2945 2946 2948 2951 2953 2957 2960 2962 2962 2963 2965 2965 2966 2967 2967 2968 2969 2970 2971 2972 2973 2975 2976 2978 2979 2980 2981 2982 2983 2984 2985